Regional Weather Roundup
Issued by NWS Sioux Falls, SD

Home | Current Version | Previous Version | Graphics & Text | Print | Product List | Glossary Off
Versions: 1 2 3 4 5 6 7 8 9 10 11 12 13 14 15 16 17 18 19 20 21 22 23 24 25 26 27 28 29 30 31 32 33 34 35 36 37 38 39 40 41 42 43 44 45 46 47 48 49 50

411
ASUS43 KFSD 092102
RWRFSD

WEATHER ROUNDUP FOR SE SOUTH DAKOTA/SW MINNESOTA/NW IOWA
NATIONAL WEATHER SERVICE SIOUX FALLS SD
300 PM CST TUE FEB 09 2016

NOTE: "FAIR" INDICATES FEW OR NO CLOUDS BELOW 12,000 FEET WITH NO
SIGNIFICANT WEATHER AND OR OBSTRUCTIONS TO VISIBILITY.


SDZ038>040-050-052>070-092200-
SOUTHEAST SOUTH DAKOTA

CITY           SKY/WX    TMP DP  RH WIND       PRES   REMARKS
BROOKINGS      CLOUDY    21  11  65 NW20      30.17S WCI   6
CHAMBERLAIN    MOSUNNY   31  13  46 SW6       30.20F WCI  25
HURON          CLOUDY    30  12  47 NW6       30.22F WCI  24
MADISON        FAIR      23  10  58 NW21      30.19S WCI   8
MITCHELL       CLOUDY    28  12  51 N9        30.25S WCI  19
SIOUX FALLS    PTSUNNY   22  10  60 NW18      30.21R WCI   7
WINNER         MOCLDY    34  13  41 SW10      30.18F WCI  26
YANKTON        CLOUDY    27  10  50 NW15      30.24F WCI  15
$$

MNZ071-072-080-081-089-090-097-098-092200-
SOUTHWEST MINNESOTA

CITY           SKY/WX    TMP DP  RH WIND       PRES   REMARKS
FAIRMONT       MOSUNNY   18   5  57 NW21G31   30.11R WCI   1
JACKSON        SUNNY     18   7  62 NW25      30.13R WCI  -1
LUVERNE        CLOUDY    21  12  68 NW13      30.20R WCI   9
MARSHALL       CLOUDY    17   9  70 NW15      30.19R WCI   2
MONTEVIDEO     CLOUDY    18  10  73 N17       30.21S WCI   2
PIPESTONE      SUNNY     21   5  49 N10G17    30.16S WCI  10
REDWOOD FALLS  MOSUNNY   18   6  59 NW16G25   30.17R WCI   3
TRACY          MOSUNNY   18  10  70 NW22G29   30.17S WCI   0
WINDOM         SUNNY     16   9  73 NW21      30.14R WCI  -2
WORTHINGTON    CLOUDY    16   5  62 NW20G26   30.16R WCI  -1
$$

IAZ001>003-012>014-020>022-031-032-NEZ013-014-SDZ071-092200-
NORTHWEST IOWA

CITY           SKY/WX    TMP DP  RH WIND       PRES   REMARKS
ESTHERVILLE    SUNNY     16   7  67 NW22      30.13S WCI  -2
SIOUX CITY     CLOUDY    23  11  60 NW20      30.23F WCI   8
SPENCER        CLOUDY    17   6  62 NW21G29   30.15F WCI   0
STORM LAKE     CLOUDY    16   7  67 NW14G21   30.16S WCI   1
$$

ABBREVIATIONS USED IN REMARKS
   TC - TEMPERATURE IN CELSIUS
  WCI - WIND CHILL INDEX
   HX - HEAT INDEX
  VSB - VISIBILITY





USA.gov is the U.S. government's official web portal to all federal, state and local government web resources and services.